Burnside, LA

12:30 AM CDT on September 30, 2016 (GMT -0500)
Gonzales

Weather History for KL38 - February, 2014

Change the Weather History Date:

Friday, February 14, 2014

  Actual Average (KBTR) Record (KBTR)
Temperature  
Mean Temperature 49 °F 55 °F  
Max Temperature 66 °F 65 °F 84 °F (1989)
Min Temperature 32 °F 44 °F 7 °F (1899)
Degree Days  
Heating Degree Days 16 11  
Month to date heating degree days 167  
Since 1 July heating degree days 1207  
Cooling Degree Days 0 1  
Month to date cooling degree days 12  
Year to date cooling degree days 25  
Moisture  
Dew Point 46 °F    
Average Humidity 83    
Maximum Humidity 100    
Minimum Humidity 56    
Precipitation  
Precipitation 0.00 in 0.19 in 1.73 in (1953)
Month to date precipitation 2.61  
Year to date precipitation 8.33  
Snow  
Snow 0.00 in - - ()
Month to date snowfall  
Since 1 July snowfall  
Snow Depth -    
Sea Level Pressure  
Sea Level Pressure 29.95 in    
Wind  
Wind Speed 4 mph (SSW)    
Max Wind Speed 17 mph    
Max Gust Speed 28 mph    
Visibility 10 miles    
Events Rain    
T = Trace of Precipitation, MM = Missing Value Source: NWS Daily Summary

Daily Weather History Graph

Daily Weather History Graph

Search for Another Location

Airport or City:

Trip Planner

Search our weather history database for the weather conditions in past years. The results will help you decide how hot, cold, wet, or windy it might be!

Date:

Astronomy

Feb. 14, 2014 Rise Set
Actual Time 6:44 AM CST 5:51 PM CST
Civil Twilight 6:20 AM CST 6:16 PM CST
Nautical Twilight 5:51 AM CST 6:44 PM CST
Astronomical Twilight 5:24 AM CST 7:12 PM CST
Moon 5:51 PM CST (2/14) 6:14 AM CST (2/14)
Length of Visible Light 11h 56m
Length of Day
11h 06m
Full, 100% of the Moon is Illuminated
Feb 14
Full
Feb 14
Full
Feb 22
Last Quarter
Mar 1
New
Mar 8
First Quarter

Hourly Weather History & Observations

Time (CST) Temp. Windchill Dew Point Humidity Pressure Visibility Wind Dir Wind Speed Gust Speed Precip Events Conditions
12:15 AM 35.8 °F - 34.9 °F 97% 30.01 in 10.0 mi Calm Calm - N/A   Clear
12:35 AM 35.2 °F - 34.5 °F 97% 30.01 in 10.0 mi Calm Calm - N/A   Clear
12:55 AM 35.4 °F - 34.7 °F 97% 30.02 in 10.0 mi Calm Calm - N/A   Clear
1:15 AM 34.9 °F - 34.5 °F 99% 30.02 in 10.0 mi Calm Calm - N/A   Clear
1:35 AM 34.5 °F - 34.0 °F 98% 30.03 in 10.0 mi Calm Calm - N/A   Clear
1:55 AM 34.3 °F - 33.8 °F 98% 30.01 in 10.0 mi Calm Calm - N/A   Clear
2:15 AM 34.7 °F - 34.0 °F 97% 30.00 in 10.0 mi Calm Calm - N/A   Clear
2:35 AM 34.5 °F - 33.8 °F 97% 30.00 in 10.0 mi Calm Calm - N/A   Clear
2:55 AM 34.0 °F - 33.6 °F 99% 30.00 in 10.0 mi Calm Calm - N/A   Clear
3:15 AM 33.1 °F - 32.9 °F 99% 29.97 in 10.0 mi Calm Calm - N/A   Clear
3:35 AM 33.8 °F - 33.3 °F 98% 29.96 in 10.0 mi Calm Calm - N/A   Clear
3:55 AM 34.0 °F - 33.8 °F 99% 29.95 in 10.0 mi Calm Calm - N/A   Clear
4:15 AM 33.1 °F - 32.7 °F 99% 29.98 in 10.0 mi Calm Calm - N/A   Clear
4:35 AM 32.7 °F - 32.4 °F 99% 29.99 in 10.0 mi Calm Calm - N/A   Clear
4:55 AM 33.4 °F - 33.4 °F 100% 29.99 in 10.0 mi Calm Calm - N/A   Clear
5:15 AM 33.3 °F - 33.1 °F 99% 29.99 in 10.0 mi North - - N/A   Clear
5:35 AM 33.4 °F - 33.3 °F 99% 29.98 in 7.0 mi North - - N/A   Clear
5:55 AM 33.3 °F - 33.1 °F 99% 29.99 in 10.0 mi North - - N/A   Clear
6:15 AM 32.9 °F - 32.7 °F 99% 30.00 in 10.0 mi Calm Calm - N/A   Clear
6:35 AM 33.1 °F - 33.1 °F 100% 30.00 in 10.0 mi Calm Calm - N/A   Clear
6:55 AM 33.6 °F - 33.3 °F 99% 30.00 in 10.0 mi Calm Calm - N/A   Clear
7:15 AM 34.0 °F - 33.8 °F 99% 29.99 in 10.0 mi Calm Calm - N/A   Clear
7:35 AM 35.6 °F 32.8 °F 35.2 °F 99% 29.98 in 7.0 mi SSE 3.5 mph - N/A   Clear
7:55 AM 38.3 °F 34.8 °F 38.1 °F 99% 29.98 in 7.0 mi SSE 4.6 mph - N/A   Clear
8:15 AM 43.9 °F 42.3 °F 42.8 °F 96% 29.98 in 10.0 mi SSE 3.5 mph - N/A   Clear
8:35 AM 47.7 °F - 44.8 °F 90% 30.00 in 10.0 mi South 3.5 mph - N/A   Clear
8:55 AM 50.4 °F - 46.6 °F 87% 30.00 in 10.0 mi SSE 5.8 mph - N/A   Clear
9:15 AM 52.9 °F - 48.2 °F 84% 29.99 in 10.0 mi South 6.9 mph - N/A   Clear
9:35 AM 54.5 °F - 48.9 °F 81% 29.99 in 10.0 mi South 8.1 mph - N/A   Clear
9:55 AM 56.5 °F - 48.6 °F 75% 30.00 in 10.0 mi South 8.1 mph 17.3 mph N/A   Clear
10:15 AM 57.4 °F - 49.5 °F 75% 29.99 in 10.0 mi South 10.4 mph - N/A   Clear
10:35 AM 58.8 °F - 50.0 °F 73% 30.00 in 10.0 mi South 10.4 mph 17.3 mph N/A   Clear
10:55 AM 59.9 °F - 49.5 °F 68% 29.99 in 10.0 mi SSW 15.0 mph 23.0 mph N/A   Scattered Clouds
11:15 AM 61.0 °F - 50.0 °F 67% 29.98 in 10.0 mi SSW 13.8 mph 20.7 mph N/A   Mostly Cloudy
11:35 AM 61.2 °F - 50.0 °F 67% 29.97 in 10.0 mi SSW 16.1 mph 23.0 mph N/A   Overcast
11:55 AM 62.2 °F - 50.0 °F 64% 29.97 in 10.0 mi South 11.5 mph 23.0 mph N/A   Overcast
12:15 PM 63.7 °F - 50.0 °F 61% 29.96 in 10.0 mi SSW 15.0 mph 21.9 mph N/A   Overcast
12:35 PM 63.5 °F - 50.2 °F 62% 29.95 in 10.0 mi SSW 10.4 mph 21.9 mph N/A   Overcast
12:55 PM 63.5 °F - 48.9 °F 59% 29.94 in 10.0 mi SSW 15.0 mph 21.9 mph N/A   Mostly Cloudy
1:15 PM 64.4 °F - 49.1 °F 58% 29.92 in 10.0 mi South 17.3 mph 27.6 mph N/A   Mostly Cloudy
1:35 PM 65.1 °F - 49.5 °F 57% 29.90 in 10.0 mi South 13.8 mph 20.7 mph N/A   Mostly Cloudy
1:55 PM 65.8 °F - 49.8 °F 56% 29.90 in 10.0 mi SSW 10.4 mph 20.7 mph N/A   Mostly Cloudy
2:15 PM 64.6 °F - 50.4 °F 60% 29.88 in 10.0 mi SSW 13.8 mph 26.5 mph N/A   Overcast
2:35 PM 64.9 °F - 51.1 °F 61% 29.88 in 10.0 mi South 10.4 mph 23.0 mph N/A   Overcast
2:55 PM 65.1 °F - 51.4 °F 61% 29.87 in 10.0 mi SSW 16.1 mph 24.2 mph N/A   Overcast
3:15 PM 64.9 °F - 52.0 °F 63% 29.86 in 10.0 mi SSW 12.7 mph 23.0 mph N/A   Overcast
3:35 PM 66.0 °F - 52.7 °F 62% 29.86 in 10.0 mi South 13.8 mph 19.6 mph N/A   Overcast
3:55 PM 65.3 °F - 52.7 °F 64% 29.85 in 10.0 mi South 12.7 mph 23.0 mph N/A   Overcast
4:15 PM 64.8 °F - 52.9 °F 65% 29.86 in 10.0 mi SSW 13.8 mph 20.7 mph N/A   Overcast
4:35 PM 64.4 °F - 53.1 °F 67% 29.88 in 10.0 mi SSW 10.4 mph 17.3 mph N/A   Overcast
4:55 PM 63.9 °F - 53.2 °F 68% 29.88 in 10.0 mi SSW 8.1 mph - N/A   Overcast
5:15 PM 63.5 °F - 53.6 °F 70% 29.88 in 10.0 mi SSW 5.8 mph - N/A   Overcast
5:35 PM 63.3 °F - 53.8 °F 71% 29.89 in 10.0 mi SSW 5.8 mph - N/A   Overcast
5:55 PM 63.0 °F - 54.7 °F 74% 29.89 in 10.0 mi SW 9.2 mph - N/A Rain Light Rain
6:15 PM 63.0 °F - 54.7 °F 74% 29.89 in 10.0 mi SSW 5.8 mph - N/A   Overcast
6:35 PM 62.6 °F - 55.0 °F 76% 29.90 in 10.0 mi SW 5.8 mph - N/A   Overcast
6:55 PM 61.9 °F - 55.4 °F 79% 29.90 in 10.0 mi SSW 4.6 mph - N/A   Scattered Clouds
7:15 PM 61.5 °F - 55.8 °F 81% 29.90 in 10.0 mi SSW 5.8 mph - N/A   Mostly Cloudy
7:35 PM 61.2 °F - 56.3 °F 84% 29.90 in 10.0 mi SW 4.6 mph - N/A   Overcast
7:55 PM 61.2 °F - 56.8 °F 86% 29.90 in 10.0 mi SSW 5.8 mph - N/A   Overcast
8:15 PM 61.0 °F - 57.2 °F 87% 29.90 in 10.0 mi SW 6.9 mph - N/A   Mostly Cloudy
8:35 PM 60.8 °F - 57.4 °F 88% 29.91 in 10.0 mi SW 4.6 mph - N/A   Scattered Clouds
8:55 PM 60.8 °F - 57.7 °F 90% 29.91 in 10.0 mi SW 6.9 mph - N/A   Clear
9:15 PM 60.6 °F - 58.1 °F 91% 29.92 in 10.0 mi WSW 6.9 mph - N/A   Scattered Clouds
9:35 PM 60.3 °F - 58.1 °F 93% 29.93 in 10.0 mi WSW 5.8 mph - N/A   Clear
9:55 PM 59.5 °F - 57.7 °F 94% 29.94 in 10.0 mi West 5.8 mph - N/A   Scattered Clouds
10:15 PM 59.2 °F - 57.7 °F 95% 29.95 in 10.0 mi West 4.6 mph - N/A   Scattered Clouds
10:35 PM 59.2 °F - 58.1 °F 96% 29.96 in 10.0 mi West 4.6 mph - N/A   Mostly Cloudy
10:55 PM 60.1 °F - 58.3 °F 94% 29.97 in 10.0 mi West 8.1 mph - N/A   Mostly Cloudy
11:15 PM 60.1 °F - 57.4 °F 91% 29.98 in 10.0 mi WNW 8.1 mph - N/A   Clear
11:35 PM 59.2 °F - 56.5 °F 91% 29.98 in 10.0 mi NW 5.8 mph - N/A   Clear
11:55 PM 58.1 °F - 55.6 °F 91% 29.98 in 10.0 mi WNW 5.8 mph - N/A   Clear